TimeEDT,TemperatureF,Dew PointF,Humidity,Sea Level PressureIn,VisibilityMPH,Wind Direction,Wind SpeedMPH,Gust SpeedMPH,PrecipitationIn,Events,Conditions,WindDirDegrees,DateUTC
12:53 AM,80.1,72.0,76,30.01,10.0,ENE,4.6,-,N/A,,Partly Cloudy,70,2012-05-26 04:53:00
1:53 AM,78.1,73.0,84,30.00,10.0,Calm,Calm,-,N/A,,Clear,0,2012-05-26 05:53:00
2:53 AM,79.0,72.0,79,29.99,10.0,ENE,3.5,-,N/A,,Partly Cloudy,70,2012-05-26 06:53:00
3:53 AM,78.1,72.0,81,29.99,10.0,Calm,Calm,-,N/A,,Partly Cloudy,0,2012-05-26 07:53:00
4:53 AM,75.9,72.0,87,29.99,10.0,Calm,Calm,-,N/A,,Partly Cloudy,0,2012-05-26 08:53:00
5:53 AM,75.0,72.0,90,30.00,10.0,Calm,Calm,-,N/A,,Clear,0,2012-05-26 09:53:00
6:53 AM,77.0,72.0,84,30.01,10.0,NW,3.5,-,N/A,,Partly Cloudy,320,2012-05-26 10:53:00
7:53 AM,78.1,73.0,84,30.02,10.0,North,4.6,-,N/A,,Partly Cloudy,350,2012-05-26 11:53:00
8:53 AM,80.1,73.0,79,30.03,10.0,NNW,3.5,-,N/A,,Partly Cloudy,330,2012-05-26 12:53:00
9:53 AM,81.0,72.0,74,30.03,10.0,Variable,3.5,-,N/A,,Partly Cloudy,0,2012-05-26 13:53:00
10:53 AM,82.0,71.1,69,30.03,10.0,Variable,6.9,-,N/A,,Mostly Cloudy,0,2012-05-26 14:53:00
11:53 AM,86.0,70.0,59,30.01,10.0,East,10.4,-,N/A,,Scattered Clouds,90,2012-05-26 15:53:00
12:53 PM,84.9,70.0,61,30.01,10.0,East,10.4,-,N/A,,Partly Cloudy,90,2012-05-26 16:53:00
1:53 PM,84.9,71.1,63,30.00,10.0,East,13.8,-,N/A,,Partly Cloudy,90,2012-05-26 17:53:00
2:53 PM,84.9,71.1,63,29.99,10.0,East,11.5,18.4,N/A,,Partly Cloudy,90,2012-05-26 18:53:00
3:53 PM,84.0,70.0,63,29.96,10.0,East,12.7,-,N/A,,Partly Cloudy,100,2012-05-26 19:53:00
4:53 PM,84.0,71.1,65,29.96,10.0,East,10.4,-,N/A,,Partly Cloudy,90,2012-05-26 20:53:00
5:53 PM,82.0,72.0,71,29.97,10.0,East,9.2,-,N/A,,Partly Cloudy,100,2012-05-26 21:53:00
6:53 PM,82.0,72.0,71,29.96,10.0,ENE,8.1,-,N/A,,Partly Cloudy,60,2012-05-26 22:53:00
7:53 PM,81.0,72.0,74,29.97,10.0,East,6.9,-,N/A,,Partly Cloudy,90,2012-05-26 23:53:00
8:53 PM,80.1,73.0,79,29.98,10.0,ENE,6.9,-,N/A,,Scattered Clouds,60,2012-05-27 00:53:00
9:53 PM,80.1,72.0,76,29.99,10.0,East,4.6,-,N/A,,Scattered Clouds,80,2012-05-27 01:53:00
10:53 PM,79.0,72.0,79,29.99,10.0,Calm,Calm,-,N/A,,Partly Cloudy,0,2012-05-27 02:53:00
11:53 PM,78.1,72.0,81,29.98,10.0,Calm,Calm,-,N/A,,Partly Cloudy,0,2012-05-27 03:53:00